| time (UTC) | temp F | wind direction | speed MPH | gust MPH | rain 1hr in | rain 24hr in | rain mn in | humidity % | barometer mb |
| 20260505013101 | 72 | 222 | 5.0 | 14.0 | 0.00 | 0.00 | 0.00 | 19 | 1003.9 |
| 20260505011559 | 73 | 218 | 9.0 | 16.0 | 0.00 | 0.00 | 0.00 | 18 | 1003.9 |
| 20260505010104 | 74 | 213 | 7.0 | 20.0 | 0.00 | 0.00 | 0.00 | 18 | 1003.9 |
| 20260505004559 | 75 | 217 | 7.0 | 15.0 | 0.00 | 0.00 | 0.00 | 18 | 1003.9 |
| 20260505003105 | 74 | 225 | 8.0 | 18.0 | 0.00 | 0.00 | 0.00 | 18 | 1004.0 |
| 20260505001600 | 75 | 149 | 5.0 | 17.0 | 0.00 | 0.00 | 0.00 | 16 | 1003.9 |
| 20260505000112 | 74 | 209 | 6.0 | 15.0 | 0.00 | 0.00 | 0.00 | 16 | 1004.0 |
| 20260504234559 | 75 | 209 | 7.0 | 16.0 | 0.00 | 0.00 | 0.00 | 16 | 1004.0 |
| 20260504233105 | 76 | 249 | 7.0 | 14.0 | 0.00 | 0.00 | 0.00 | 13 | 1004.1 |
| 20260504231559 | 77 | 224 | 7.0 | 16.0 | 0.00 | 0.00 | 0.00 | 14 | 1004.0 |
| 20260504230058 | 78 | 217 | 4.0 | 14.0 | 0.00 | 0.00 | 0.00 | 13 | 1004.1 |
| 20260504230002 | 78 | 190 | 6.0 | 14.0 | 0.00 | 0.00 | 0.00 | 13 | 1004.1 |
| 20260504224601 | 78 | 140 | 5.0 | 14.0 | 0.00 | 0.00 | 0.00 | 12 | 1004.0 |
| 20260504223100 | 77 | 196 | 8.0 | 15.0 | 0.00 | 0.00 | 0.00 | 13 | 1004.2 |
| 20260504221559 | 77 | 177 | 7.0 | 19.0 | 0.00 | 0.00 | 0.00 | 13 | 1004.2 |
| 20260504220121 | 78 | 217 | 9.0 | 16.0 | 0.00 | 0.00 | 0.00 | 11 | 1004.4 |
| 20260504214600 | 78 | 215 | 5.0 | 11.0 | 0.00 | 0.00 | 0.00 | 11 | 1004.5 |
| 20260504213102 | 78 | 170 | 7.0 | 16.0 | 0.00 | 0.00 | 0.00 | 12 | 1004.9 |
| 20260504211559 | 78 | 178 | 5.0 | 17.0 | 0.00 | 0.00 | 0.00 | 13 | 1005.1 |
| 20260504210059 | 78 | 135 | 4.0 | 17.0 | 0.00 | 0.00 | 0.00 | 11 | 1004.9 |
| 20260504204559 | 76 | 166 | 8.0 | 23.0 | 0.00 | 0.00 | 0.00 | 13 | 1005.0 |
| 20260504203059 | 77 | 172 | 4.0 | 16.0 | 0.00 | 0.00 | 0.00 | 17 | 1005.0 |
| 20260504201559 | 77 | 240 | 6.0 | 19.0 | 0.00 | 0.00 | 0.00 | 16 | 1005.0 |
| 20260504200003 | 77 | 171 | 7.0 | 19.0 | 0.00 | 0.00 | 0.00 | 17 | 1005.0 |
| 20260504194558 | 76 | 216 | 10.0 | 18.0 | 0.00 | 0.00 | 0.00 | 14 | 1005.3 |
| 20260504193100 | 76 | 212 | 6.0 | 18.0 | 0.00 | 0.00 | 0.00 | 19 | 1005.3 |
| 20260504191559 | 75 | 167 | 8.0 | 16.0 | 0.00 | 0.00 | 0.00 | 19 | 1005.4 |
| 20260504190111 | 74 | 188 | 8.0 | 17.0 | 0.00 | 0.00 | 0.00 | 20 | 1005.5 |
| 20260504190001 | 74 | 222 | 8.0 | 17.0 | 0.00 | 0.00 | 0.00 | 21 | 1005.5 |
| 20260504184616 | 74 | 232 | 9.0 | 15.0 | 0.00 | 0.00 | 0.00 | 23 | 1005.7 |
| 20260504183109 | 72 | 167 | 5.0 | 14.0 | 0.00 | 0.00 | 0.00 | 26 | 1005.7 |
| 20260504181559 | 71 | 252 | 6.0 | 11.0 | 0.00 | 0.00 | 0.00 | 27 | 1005.9 |
| 20260504180059 | 69 | 264 | 5.0 | 11.0 | 0.00 | 0.00 | 0.00 | 28 | 1006.4 |
| 20260504174609 | 68 | 188 | 6.0 | 16.0 | 0.00 | 0.00 | 0.00 | 31 | 1006.3 |
| 20260504173104 | 68 | 225 | 6.0 | 15.0 | 0.00 | 0.00 | 0.00 | 32 | 1006.0 |
| 20260504171558 | 68 | 203 | 7.0 | 14.0 | 0.00 | 0.00 | 0.00 | 32 | 1005.7 |
| 20260504170108 | 68 | 226 | 5.0 | 15.0 | 0.00 | 0.00 | 0.00 | 33 | 1005.6 |
| 20260504120104 | 63 | 121 | 5.0 | 11.0 | 0.00 | 0.00 | 0.00 | 37 | 1003.6 |
| 20260504081558 | 69 | 166 | 7.0 | 12.0 | 0.00 | 0.00 | 0.00 | 25 | 1003.3 |
| 20260504050002 | 74 | 159 | 4.0 | 9.0 | 0.00 | 0.00 | 0.00 | 14 | 1002.7 |
| 20260504044604 | 75 | 136 | 5.0 | 9.0 | 0.00 | 0.00 | 0.00 | 15 | 1002.6 |
| 20260504043102 | 76 | 166 | 2.0 | 8.0 | 0.00 | 0.00 | 0.00 | 16 | 1002.7 |
| 20260504041559 | 76 | 207 | 3.0 | 8.0 | 0.00 | 0.00 | 0.00 | 17 | 1002.5 |
| 20260504040106 | 77 | 188 | 3.0 | 6.0 | 0.00 | 0.00 | 0.00 | 16 | 1002.2 |
| 20260504034621 | 78 | 182 | 5.0 | 10.0 | 0.00 | 0.00 | 0.00 | 15 | 1002.0 |
| 20260504033128 | 79 | 214 | 2.0 | 8.0 | 0.00 | 0.00 | 0.00 | 14 | 1001.7 |
| 20260504031604 | 80 | 157 | 5.0 | 13.0 | 0.00 | 0.00 | 0.00 | 13 | 1001.4 |
| 20260504030105 | 80 | 168 | 7.0 | 12.0 | 0.00 | 0.00 | 0.00 | 13 | 1001.1 |
| 20260504024500 | 81 | 173 | 4.0 | 14.0 | 0.00 | 0.00 | 0.00 | 13 | 1001.0 |
| 20260504023105 | 81 | 213 | 6.0 | 16.0 | 0.00 | 0.00 | 0.00 | 12 | 1000.6 |
| 20260504023001 | 82 | 211 | 7.0 | 16.0 | 0.00 | 0.00 | 0.00 | 12 | 1000.7 |
| 20260504021559 | 82 | 247 | 6.0 | 13.0 | 0.00 | 0.00 | 0.00 | 12 | 1000.7 |
| 20260504021501 | 82 | 204 | 6.0 | 13.0 | 0.00 | 0.00 | 0.00 | 12 | 1000.7 |
| 20260504014559 | 83 | 203 | 5.0 | 15.0 | 0.00 | 0.00 | 0.00 | 12 | 1000.5 |